EcAMSat (43019 NORAD) Tracking and Keplerian Element Data

This shows tracking and keplerian element data for the satellite.

Feedback or suggestion? Click here.




ElementValue
Catalog43019
NameEcAMSat
Epoch Orbit12247
Epoch Day193.37547815
Epoch Year2018
RAAN249.8045
Inclination51.6394
Eccentricity0.0004517
Argument of Perigee270.2298
Mean Anonmoly89.8176
Mean Motion15.57308799
Decay Rate3.283E-05
L11 43019U 98067NG 18193.37547815 .00003283 00000-0 50790-4 0 9990
L22 43019 51.6394 249.8045 0004517 270.2298 89.8176 15.57308799122475

Live tracking and technical data element details for EcAMSat (NORAD 43019). EcAMSat can be tracked NOW for your location showing map with azimuth and elevation plus other details from your city location.

Track the satellite on the map from your city or location and see movement details for azimuth, elevation, latitude, longitude, range, height, and movement on the map or in text.







IsCatalogInMostPopularTable: catalog: 43019, numindb: 127
Update: records affected: 1



GetName: 43019 EcAMSat

Hit Count: updated at: Thu, 19 Jul 2018 04:00:45 GMT